天启-23星 (TIANQI-23)

导读

TIANQI 23(天启23)是中国研制的低轨物联网卫星,隶属于天启星座,于北京时间2023年9月5日,通过谷神星一号运载火箭在山东海阳黄海海域以"一箭四星"方式成功发射,卫星顺利进入预定轨道。它主要用于提供全球范围内的物联网数据采集、传输服务,支撑海洋、农林、工业等领域物联网应用,进一步完善了中国低轨物联网星座的组网覆盖能力,推动商业航天物联网产业发展。

基本信息
目录编号:
57794
目录名称:
TIANQI 23
国际标识:
2023-135C
轨道中心:
EARTH
卫星名称:
天启-23星
卫星全名:
天启-23星 (TIANQI-23)
卫星状态:
在轨 (已飞行1011 天)
发射日期:
2023-09-05 UTC
国别 :
中国 (CN)
星等 :
--
轨道信息
数据来源 国际轨道数据 AOE轨道数据
星历时间 2026-06-12T15:13:34+0800
12小时前
查看轨道信息
2026-06-12T00:00:00+0800
1天前
查看轨道信息
半长轴 7193.24km 7193.24km
偏心率 0.0013985 0.0014079
轨道倾角 49.971° 49.969°
近地点辐角 245.118° 243.158°
升交点赤经 173.091° 175.761°
平近点角 114.828° 104.482°
近地点 805.043km 804.975km
远地点 825.163km 825.231km
周期 101.192分钟 101.192分钟
每日圈数 14.230362 14.230362
详细信息
平衡模式:
三轴稳定
覆盖范围:
全球
运营商:
北京国电高科科技有限公司
运营商所在国:
中国
制造商(研发单位):
北京国电高科科技有限公司
制造商所在国:
中国
使用方式:
暂无
卫星简介
天启星座(Tianqi)由38颗卫星组网而成,提供全球短数据采集。致力于为全球物联网相关行业用户提供覆盖全球、准实时的物联网卫星数据服务,真正实现空中、海洋和地面的万物互联,构建天地一体化的卫星物联网生态系统,全面解决海上、空中以及陆地网络盲区(我国有70%以上陆地没有网络覆盖)的物联网数据通信问题。该卫星仍在工作。
2D轨道图
3D轨道图
轨道高度分析图
轨道倾角分析图
轨道综合分析图
查看轨道综合分析图